Time,TemperatureF,DewpointF,PressureIn,WindDirection,WindDirectionDegrees,WindSpeedMPH,WindSpeedGustMPH,Humidity,HourlyPrecipIn,Conditions,Clouds,dailyrainin,SoftwareType,DateUTC
2013-01-22 00:00:00,14.0,-1.6,30.32,WNW,303,8.0,0.0,49,0.00,,,0.00,VWS V14.01,2013-01-22 05:00:00,
2013-01-22 00:04:00,13.8,-1.8,30.32,WNW,285,0.0,0.0,49,0.00,,,0.00,VWS V14.01,2013-01-22 05:04:00,
2013-01-22 00:10:00,13.8,-1.4,30.32,WNW,289,6.0,0.0,50,0.00,,,0.00,VWS V14.01,2013-01-22 05:10:00,
2013-01-22 00:15:00,13.6,-2.4,30.33,WNW,286,3.0,0.0,48,0.00,,,0.00,VWS V14.01,2013-01-22 05:15:00,
2013-01-22 00:20:00,13.6,-2.0,30.33,WNW,284,4.0,0.0,49,0.00,,,0.00,VWS V14.01,2013-01-22 05:20:00,
2013-01-22 00:25:00,13.5,-1.7,30.33,WNW,295,4.0,0.0,50,0.00,,,0.00,VWS V14.01,2013-01-22 05:25:00,
2013-01-22 00:30:00,13.5,-1.7,30.33,West,261,4.0,0.0,50,0.00,,,0.00,VWS V14.01,2013-01-22 05:30:00,
2013-01-22 00:35:00,13.3,-2.3,30.33,WSW,258,9.0,0.0,49,0.00,,,0.00,VWS V14.01,2013-01-22 05:35:00,
2013-01-22 00:40:00,13.3,-2.3,30.33,West,264,6.0,0.0,49,0.00,,,0.00,VWS V14.01,2013-01-22 05:40:00,
2013-01-22 00:45:00,13.3,-1.9,30.33,West,263,6.0,0.0,50,0.00,,,0.00,VWS V14.01,2013-01-22 05:45:00,
2013-01-22 00:50:00,13.1,-2.5,30.33,WNW,286,3.0,0.0,49,0.00,,,0.00,VWS V14.01,2013-01-22 05:50:00,
2013-01-22 00:55:00,12.9,-2.2,30.33,West,276,3.0,0.0,50,0.00,,,0.00,VWS V14.01,2013-01-22 05:55:00,
2013-01-22 01:00:00,12.9,-2.2,30.34,WSW,252,5.0,0.0,50,0.00,,,0.00,VWS V14.01,2013-01-22 06:00:00,
2013-01-22 01:05:00,12.8,-1.9,30.34,WNW,287,3.0,0.0,51,0.00,,,0.00,VWS V14.01,2013-01-22 06:05:00,
2013-01-22 01:10:00,12.8,-1.5,30.34,West,269,5.0,0.0,52,0.00,,,0.00,VWS V14.01,2013-01-22 06:10:00,
2013-01-22 01:15:00,12.8,-1.5,30.34,West,264,6.0,0.0,52,0.00,,,0.00,VWS V14.01,2013-01-22 06:15:00,
2013-01-22 01:20:00,12.6,-2.5,30.34,West,265,5.0,0.0,50,0.00,,,0.00,VWS V14.01,2013-01-22 06:20:00,
2013-01-22 01:25:00,12.6,-2.1,30.34,West,281,3.0,0.0,51,0.00,,,0.00,VWS V14.01,2013-01-22 06:25:00,
2013-01-22 01:30:00,12.4,-2.7,30.34,WNW,296,3.0,0.0,50,0.00,,,0.00,VWS V14.01,2013-01-22 06:30:00,
2013-01-22 01:35:00,12.4,-2.7,30.34,WNW,287,5.0,0.0,50,0.00,,,0.00,VWS V14.01,2013-01-22 06:35:00,
2013-01-22 01:40:00,12.4,-1.9,30.34,West,274,3.0,0.0,52,0.00,,,0.00,VWS V14.01,2013-01-22 06:40:00,
2013-01-22 01:45:00,12.4,-2.7,30.34,NW,307,4.0,0.0,50,0.00,,,0.00,VWS V14.01,2013-01-22 06:45:00,
2013-01-22 01:50:00,12.3,-2.4,30.34,West,269,2.0,0.0,51,0.00,,,0.00,VWS V14.01,2013-01-22 06:50:00,
2013-01-22 01:55:00,12.4,-1.5,30.34,West,270,2.0,0.0,53,0.00,,,0.00,VWS V14.01,2013-01-22 06:55:00,
2013-01-22 02:00:00,12.3,-2.0,30.34,WNW,290,3.0,0.0,52,0.00,,,0.00,VWS V14.01,2013-01-22 07:00:00,
2013-01-22 02:05:00,12.1,-1.7,30.34,WNW,293,6.0,0.0,53,0.00,,,0.00,VWS V14.01,2013-01-22 07:05:00,
2013-01-22 02:10:00,12.1,-1.7,30.34,West,259,2.0,0.0,53,0.00,,,0.00,VWS V14.01,2013-01-22 07:10:00,
2013-01-22 02:15:00,12.1,-1.7,30.35,WSW,250,4.0,0.0,53,0.00,,,0.00,VWS V14.01,2013-01-22 07:15:00,
2013-01-22 02:20:00,12.1,-1.7,30.35,SW,225,2.0,0.0,53,0.00,,,0.00,VWS V14.01,2013-01-22 07:20:00,
2013-01-22 02:25:00,11.9,-2.3,30.35,WSW,254,1.0,0.0,52,0.00,,,0.00,VWS V14.01,2013-01-22 07:25:00,
2013-01-22 02:30:00,11.9,-1.9,30.35,West,276,2.0,0.0,53,0.00,,,0.00,VWS V14.01,2013-01-22 07:30:00,
2013-01-22 02:35:00,12.1,-1.7,30.35,West,265,2.0,0.0,53,0.00,,,0.00,VWS V14.01,2013-01-22 07:35:00,
2013-01-22 02:40:00,11.9,-1.5,30.35,West,280,2.0,0.0,54,0.00,,,0.00,VWS V14.01,2013-01-22 07:40:00,
2013-01-22 02:50:00,11.9,-1.9,30.35,West,273,4.0,0.0,53,0.00,,,0.00,VWS V14.01,2013-01-22 07:50:00,
2013-01-22 03:10:00,11.7,-2.1,30.35,West,275,3.0,0.0,53,0.00,,,0.00,VWS V14.01,2013-01-22 08:10:00,
2013-01-22 03:45:00,11.7,-2.9,30.36,West,277,4.0,0.0,51,0.00,,,0.00,VWS V14.01,2013-01-22 08:45:00,
2013-01-22 03:50:00,11.9,-1.5,30.35,WNW,297,2.0,0.0,54,0.00,,,0.00,VWS V14.01,2013-01-22 08:50:00,
2013-01-22 04:00:00,12.1,-0.6,30.35,WSW,243,2.0,0.0,56,0.00,,,0.00,VWS V14.01,2013-01-22 09:00:00,
2013-01-22 04:05:00,12.3,-0.8,30.35,WNW,292,4.0,0.0,55,0.00,,,0.00,VWS V14.01,2013-01-22 09:05:00,
2013-01-22 04:10:00,11.9,-1.1,30.35,WSW,247,3.0,0.0,55,0.00,,,0.00,VWS V14.01,2013-01-22 09:10:00,
2013-01-22 04:20:00,11.7,-2.1,30.36,WNW,287,2.0,0.0,53,0.00,,,0.00,VWS V14.01,2013-01-22 09:20:00,
2013-01-22 04:25:00,11.7,-2.1,30.36,West,277,4.0,0.0,53,0.00,,,0.00,VWS V14.01,2013-01-22 09:25:00,
2013-01-22 04:26:00,11.7,-2.9,30.36,WSW,238,3.0,0.0,51,0.00,,,0.00,VWS V14.01,2013-01-22 09:26:00,
2013-01-22 04:30:00,11.6,-2.2,30.36,West,281,2.0,0.0,53,0.00,,,0.00,VWS V14.01,2013-01-22 09:30:00,
2013-01-22 04:35:00,11.6,-2.6,30.36,West,261,6.0,0.0,52,0.00,,,0.00,VWS V14.01,2013-01-22 09:35:00,
2013-01-22 04:40:00,11.6,-2.6,30.36,West,269,3.0,0.0,52,0.00,,,0.00,VWS V14.01,2013-01-22 09:40:00,
2013-01-22 04:45:00,11.6,-2.6,30.36,West,261,3.0,0.0,52,0.00,,,0.00,VWS V14.01,2013-01-22 09:45:00,
2013-01-22 04:46:00,11.4,-3.2,30.36,WSW,257,4.0,0.0,51,0.00,,,0.00,VWS V14.01,2013-01-22 09:46:00,
2013-01-22 04:51:00,11.2,-3.8,30.36,West,279,5.0,0.0,50,0.00,,,0.00,VWS V14.01,2013-01-22 09:51:00,
2013-01-22 05:01:00,11.6,-3.4,30.36,WSW,254,6.0,0.0,50,0.00,,,0.00,VWS V14.01,2013-01-22 10:01:00,
2013-01-22 05:10:00,11.6,-3.0,30.36,WSW,250,3.0,0.0,51,0.00,,,0.00,VWS V14.01,2013-01-22 10:10:00,
2013-01-22 05:15:00,11.6,-2.6,30.36,West,271,6.0,0.0,52,0.00,,,0.00,VWS V14.01,2013-01-22 10:15:00,
2013-01-22 05:16:00,11.4,-2.8,30.38,West,271,3.0,0.0,52,0.00,,,0.00,VWS V14.01,2013-01-22 10:16:00,
2013-01-22 05:20:00,11.6,-3.0,30.36,West,263,4.0,0.0,51,0.00,,,0.00,VWS V14.01,2013-01-22 10:20:00,
2013-01-22 05:25:00,11.7,-2.5,30.36,West,263,2.0,0.0,52,0.00,,,0.00,VWS V14.01,2013-01-22 10:25:00,
2013-01-22 05:34:00,11.6,-3.0,30.36,SW,236,4.0,0.0,51,0.00,,,0.00,VWS V14.01,2013-01-22 10:34:00,
2013-01-22 05:40:00,11.4,-3.6,30.39,West,273,7.0,0.0,50,0.00,,,0.00,VWS V14.01,2013-01-22 10:40:00,
2013-01-22 05:41:00,11.6,-2.6,30.36,West,269,4.0,0.0,52,0.00,,,0.00,VWS V14.01,2013-01-22 10:41:00,
2013-01-22 05:46:00,11.4,-2.8,30.36,WNW,297,9.0,0.0,52,0.00,,,0.00,VWS V14.01,2013-01-22 10:46:00,
2013-01-22 05:54:00,11.2,-3.8,30.36,NW,306,7.0,0.0,50,0.00,,,0.00,VWS V14.01,2013-01-22 10:54:00,
2013-01-22 06:01:00,11.2,-3.4,30.36,WNW,287,6.0,0.0,51,0.00,,,0.00,VWS V14.01,2013-01-22 11:01:00,
2013-01-22 06:06:00,11.4,-3.2,30.37,West,281,4.0,0.0,51,0.00,,,0.00,VWS V14.01,2013-01-22 11:06:00,
2013-01-22 06:11:00,11.4,-3.2,30.37,WNW,284,2.0,0.0,51,0.00,,,0.00,VWS V14.01,2013-01-22 11:11:00,
2013-01-22 06:16:00,11.4,-3.2,30.37,WNW,290,5.0,0.0,51,0.00,,,0.00,VWS V14.01,2013-01-22 11:16:00,
2013-01-22 06:24:00,11.2,-3.4,30.38,West,281,4.0,0.0,51,0.00,,,0.00,VWS V14.01,2013-01-22 11:24:00,
2013-01-22 06:31:00,11.2,-3.8,30.38,WNW,295,6.0,0.0,50,0.00,,,0.00,VWS V14.01,2013-01-22 11:31:00,
2013-01-22 06:36:00,11.2,-3.4,30.39,NW,308,4.0,0.0,51,0.00,,,0.00,VWS V14.01,2013-01-22 11:36:00,
2013-01-22 06:41:00,11.4,-3.2,30.39,West,261,3.0,0.0,51,0.00,,,0.00,VWS V14.01,2013-01-22 11:41:00,
2013-01-22 06:46:00,11.4,-3.6,30.39,West,276,3.0,0.0,50,0.00,,,0.00,VWS V14.01,2013-01-22 11:46:00,
2013-01-22 06:51:00,11.2,-3.8,30.39,West,275,5.0,0.0,50,0.00,,,0.00,VWS V14.01,2013-01-22 11:51:00,
2013-01-22 06:56:00,11.4,-2.8,30.39,West,259,2.0,0.0,52,0.00,,,0.00,VWS V14.01,2013-01-22 11:56:00,
2013-01-22 07:01:00,11.7,-2.5,30.39,West,260,4.0,0.0,52,0.00,,,0.00,VWS V14.01,2013-01-22 12:01:00,
2013-01-22 07:06:00,11.7,-2.9,30.41,West,279,4.0,0.0,51,0.00,,,0.00,VWS V14.01,2013-01-22 12:06:00,
2013-01-22 07:11:00,11.6,-2.6,30.41,West,271,7.0,0.0,52,0.00,,,0.00,VWS V14.01,2013-01-22 12:11:00,
2013-01-22 07:16:00,11.6,-2.6,30.41,WNW,283,2.0,0.0,52,0.00,,,0.00,VWS V14.01,2013-01-22 12:16:00,
2013-01-22 07:21:00,11.6,-3.0,30.41,WSW,249,3.0,0.0,51,0.00,,,0.00,VWS V14.01,2013-01-22 12:21:00,
2013-01-22 07:26:00,11.7,-2.9,30.41,West,262,2.0,0.0,51,0.00,,,0.00,VWS V14.01,2013-01-22 12:26:00,
2013-01-22 07:32:00,11.7,-3.3,30.41,West,264,2.0,0.0,50,0.00,,,0.00,VWS V14.01,2013-01-22 12:32:00,
2013-01-22 07:37:00,11.6,-3.4,30.41,WSW,258,3.0,0.0,50,0.00,,,0.00,VWS V14.01,2013-01-22 12:37:00,
2013-01-22 07:42:00,11.6,-3.4,30.41,West,261,6.0,0.0,50,0.00,,,0.00,VWS V14.01,2013-01-22 12:42:00,
2013-01-22 07:52:00,11.4,-2.8,30.41,NW,308,6.0,0.0,52,0.00,,,0.00,VWS V14.01,2013-01-22 12:52:00,
2013-01-22 07:57:00,11.4,-2.8,30.41,WSW,244,4.0,0.0,52,0.00,,,0.00,VWS V14.01,2013-01-22 12:57:00,
2013-01-22 08:02:00,11.4,-2.8,30.41,NW,311,5.0,0.0,52,0.00,,,0.00,VWS V14.01,2013-01-22 13:02:00,
2013-01-22 08:07:00,11.4,-2.8,30.42,WNW,286,3.0,0.0,52,0.00,,,0.00,VWS V14.01,2013-01-22 13:07:00,
2013-01-22 08:12:00,11.2,-3.0,30.42,West,263,5.0,0.0,52,0.00,,,0.00,VWS V14.01,2013-01-22 13:12:00,
2013-01-22 08:17:00,11.1,-2.7,30.42,WNW,298,2.0,0.0,53,0.00,,,0.00,VWS V14.01,2013-01-22 13:17:00,
2013-01-22 08:22:00,11.1,-2.7,30.43,West,277,2.0,0.0,53,0.00,,,0.00,VWS V14.01,2013-01-22 13:22:00,
2013-01-22 08:27:00,11.2,-2.6,30.43,WNW,284,4.0,0.0,53,0.00,,,0.00,VWS V14.01,2013-01-22 13:27:00,
2013-01-22 08:32:00,11.2,-3.0,30.43,WNW,292,7.0,0.0,52,0.00,,,0.00,VWS V14.01,2013-01-22 13:32:00,
2013-01-22 08:37:00,11.2,-3.4,30.43,WNW,284,5.0,0.0,51,0.00,,,0.00,VWS V14.01,2013-01-22 13:37:00,
2013-01-22 08:42:00,11.2,-3.4,30.43,WNW,294,7.0,0.0,51,0.00,,,0.00,VWS V14.01,2013-01-22 13:42:00,
2013-01-22 08:47:00,11.2,-3.4,30.43,WNW,284,4.0,0.0,51,0.00,,,0.00,VWS V14.01,2013-01-22 13:47:00,
2013-01-22 08:52:00,11.1,-3.1,30.44,West,272,6.0,0.0,52,0.00,,,0.00,VWS V14.01,2013-01-22 13:52:00,
2013-01-22 08:58:00,11.1,-3.9,30.44,West,264,4.0,0.0,50,0.00,,,0.00,VWS V14.01,2013-01-22 13:58:00,
2013-01-22 09:03:00,11.2,-3.4,30.44,West,279,3.0,0.0,51,0.00,,,0.00,VWS V14.01,2013-01-22 14:03:00,
2013-01-22 09:08:00,11.6,-3.4,30.44,West,265,5.0,0.0,50,0.00,,,0.00,VWS V14.01,2013-01-22 14:08:00,
2013-01-22 09:13:00,11.4,-4.0,30.44,West,266,4.0,0.0,49,0.00,,,0.00,VWS V14.01,2013-01-22 14:13:00,
2013-01-22 09:18:00,11.4,-4.5,30.44,WNW,294,3.0,0.0,48,0.00,,,0.00,VWS V14.01,2013-01-22 14:18:00,
2013-01-22 09:23:00,11.6,-3.8,30.45,WNW,287,4.0,0.0,49,0.00,,,0.00,VWS V14.01,2013-01-22 14:23:00,
2013-01-22 09:28:00,11.7,-4.6,30.45,WSW,257,6.0,0.0,47,0.00,,,0.00,VWS V14.01,2013-01-22 14:28:00,
2013-01-22 09:33:00,12.1,-3.8,30.45,West,280,8.0,0.0,48,0.00,,,0.00,VWS V14.01,2013-01-22 14:33:00,
2013-01-22 09:38:00,11.7,-6.5,30.46,WSW,257,8.0,0.0,43,0.00,,,0.00,VWS V14.01,2013-01-22 14:38:00,
2013-01-22 09:43:00,11.7,-6.9,30.46,WNW,292,7.0,0.0,42,0.00,,,0.00,VWS V14.01,2013-01-22 14:43:00,
2013-01-22 09:48:00,11.9,-6.8,30.46,WNW,284,7.0,0.0,42,0.00,,,0.00,VWS V14.01,2013-01-22 14:48:00,
2013-01-22 09:53:00,12.1,-7.1,30.46,WNW,289,10.0,0.0,41,0.00,,,0.00,VWS V14.01,2013-01-22 14:53:00,
2013-01-22 09:58:00,11.7,-7.4,30.46,West,265,3.0,0.0,41,0.00,,,0.00,VWS V14.01,2013-01-22 14:58:00,
2013-01-22 10:03:00,12.4,-6.8,30.46,West,281,5.0,0.0,41,0.00,,,0.00,VWS V14.01,2013-01-22 15:03:00,
2013-01-22 10:08:00,12.3,-7.9,30.46,West,264,9.0,0.0,39,0.00,,,0.00,VWS V14.01,2013-01-22 15:08:00,
2013-01-22 10:13:00,12.6,-6.6,30.46,SW,227,4.0,0.0,41,0.00,,,0.00,VWS V14.01,2013-01-22 15:13:00,
2013-01-22 10:18:00,13.1,-6.7,30.46,West,275,7.0,0.0,40,0.00,,,0.00,VWS V14.01,2013-01-22 15:18:00,
2013-01-22 10:23:00,13.1,-6.7,30.47,West,263,6.0,0.0,40,0.00,,,0.00,VWS V14.01,2013-01-22 15:23:00,
2013-01-22 10:28:00,12.9,-6.9,30.47,WSW,256,6.0,0.0,40,0.00,,,0.00,VWS V14.01,2013-01-22 15:28:00,
2013-01-22 10:33:00,13.5,-7.4,30.47,SW,221,4.0,0.0,38,0.00,,,0.00,VWS V14.01,2013-01-22 15:33:00,
2013-01-22 10:38:00,13.3,-7.0,30.48,WNW,285,4.0,0.0,39,0.00,,,0.00,VWS V14.01,2013-01-22 15:38:00,
2013-01-22 10:43:00,13.6,-7.3,30.48,WSW,240,4.0,0.0,38,0.00,,,0.00,VWS V14.01,2013-01-22 15:43:00,
2013-01-22 10:48:00,13.6,-6.8,30.48,West,276,5.0,0.0,39,0.00,,,0.00,VWS V14.01,2013-01-22 15:48:00,
2013-01-22 10:53:00,13.5,-7.4,30.48,West,265,7.0,0.0,38,0.00,,,0.00,VWS V14.01,2013-01-22 15:53:00,
2013-01-22 10:58:00,13.3,-7.0,30.48,West,279,6.0,0.0,39,0.00,,,0.00,VWS V14.01,2013-01-22 15:58:00,
2013-01-22 11:03:00,13.6,-6.2,30.48,West,263,9.0,0.0,40,0.00,,,0.00,VWS V14.01,2013-01-22 16:03:00,
2013-01-22 11:08:00,13.5,-6.3,30.48,West,271,6.0,0.0,40,0.00,,,0.00,VWS V14.01,2013-01-22 16:08:00,
2013-01-22 11:13:00,13.6,-6.2,30.48,NW,305,11.0,0.0,40,0.00,,,0.00,VWS V14.01,2013-01-22 16:13:00,
2013-01-22 11:18:00,14.3,-5.6,30.48,WSW,248,5.0,0.0,40,0.00,,,0.00,VWS V14.01,2013-01-22 16:18:00,
2013-01-22 11:23:00,14.4,-6.6,30.48,West,264,7.0,0.0,38,0.00,,,0.00,VWS V14.01,2013-01-22 16:23:00,
2013-01-22 11:28:00,14.3,-6.7,30.48,West,275,6.0,0.0,38,0.00,,,0.00,VWS V14.01,2013-01-22 16:28:00,
2013-01-22 11:33:00,14.6,-5.3,30.48,WNW,303,5.0,0.0,40,0.00,,,0.00,VWS V14.01,2013-01-22 16:33:00,
2013-01-22 11:38:00,15.1,-5.9,30.48,WSW,237,4.0,0.0,38,0.00,,,0.00,VWS V14.01,2013-01-22 16:38:00,
2013-01-22 11:43:00,15.2,-5.3,30.48,WSW,242,4.0,0.0,39,0.00,,,0.00,VWS V14.01,2013-01-22 16:43:00,
2013-01-22 11:48:00,15.6,-5.5,30.48,West,280,8.0,0.0,38,0.00,,,0.00,VWS V14.01,2013-01-22 16:48:00,
2013-01-22 11:53:00,15.4,-6.8,30.46,WNW,300,8.0,0.0,36,0.00,,,0.00,VWS V14.01,2013-01-22 16:53:00,
2013-01-22 11:58:00,15.4,-6.8,30.46,WNW,286,5.0,0.0,36,0.00,,,0.00,VWS V14.01,2013-01-22 16:58:00,
2013-01-22 12:03:00,15.7,-5.9,30.46,WNW,294,7.0,0.0,37,0.00,,,0.00,VWS V14.01,2013-01-22 17:03:00,
2013-01-22 12:08:00,16.2,-5.5,30.46,West,269,9.0,0.0,37,0.00,,,0.00,VWS V14.01,2013-01-22 17:08:00,
2013-01-22 12:14:00,16.7,-4.5,30.46,WSW,257,4.0,0.0,38,0.00,,,0.00,VWS V14.01,2013-01-22 17:14:00,
2013-01-22 12:19:00,16.5,-5.8,30.45,West,279,2.0,0.0,36,0.00,,,0.00,VWS V14.01,2013-01-22 17:19:00,
2013-01-22 12:24:00,16.9,-7.8,30.45,WNW,288,0.0,0.0,32,0.00,,,0.00,VWS V14.01,2013-01-22 17:24:00,
2013-01-22 12:29:00,17.0,-6.5,30.45,West,267,9.0,0.0,34,0.00,,,0.00,VWS V14.01,2013-01-22 17:29:00,
2013-01-22 12:34:00,17.0,-7.1,30.45,WSW,244,6.0,0.0,33,0.00,,,0.00,VWS V14.01,2013-01-22 17:34:00,
2013-01-22 12:44:00,17.2,-6.3,30.45,SW,224,4.0,0.0,34,0.00,,,0.00,VWS V14.01,2013-01-22 17:44:00,
2013-01-22 12:49:00,17.5,-5.5,30.43,West,266,5.0,0.0,35,0.00,,,0.00,VWS V14.01,2013-01-22 17:49:00,
2013-01-22 12:54:00,17.7,-5.3,30.43,SSW,213,3.0,0.0,35,0.00,,,0.00,VWS V14.01,2013-01-22 17:54:00,
2013-01-22 12:59:00,17.7,-7.1,30.43,NW,313,5.0,0.0,32,0.00,,,0.00,VWS V14.01,2013-01-22 17:59:00,
2013-01-22 13:04:00,17.3,-6.9,30.43,WNW,285,3.0,0.0,33,0.00,,,0.00,VWS V14.01,2013-01-22 18:04:00,
2013-01-22 13:09:00,17.5,-6.7,30.43,West,269,5.0,0.0,33,0.00,,,0.00,VWS V14.01,2013-01-22 18:09:00,
2013-01-22 13:14:00,17.7,-6.5,30.43,West,266,3.0,0.0,33,0.00,,,0.00,VWS V14.01,2013-01-22 18:14:00,
2013-01-22 13:19:00,18.1,-6.8,30.43,West,261,7.0,0.0,32,0.00,,,0.00,VWS V14.01,2013-01-22 18:19:00,
2013-01-22 13:24:00,18.0,-6.2,30.43,WNW,299,3.0,0.0,33,0.00,,,0.00,VWS V14.01,2013-01-22 18:24:00,
2013-01-22 13:29:00,18.0,-6.9,30.43,SW,229,2.0,0.0,32,0.00,,,0.00,VWS V14.01,2013-01-22 18:29:00,
2013-01-22 13:34:00,18.3,-6.6,30.42,SW,232,4.0,0.0,32,0.00,,,0.00,VWS V14.01,2013-01-22 18:34:00,
2013-01-22 13:39:00,18.0,-6.9,30.42,WNW,283,1.0,0.0,32,0.00,,,0.00,VWS V14.01,2013-01-22 18:39:00,
2013-01-22 13:44:00,18.3,-5.4,30.42,West,264,4.0,0.0,34,0.00,,,0.00,VWS V14.01,2013-01-22 18:44:00,
2013-01-22 13:49:00,19.4,-5.6,30.41,SW,230,5.0,0.0,32,0.00,,,0.00,VWS V14.01,2013-01-22 18:49:00,
2013-01-22 13:54:00,19.5,-5.6,30.41,SW,235,2.0,0.0,32,0.00,,,0.00,VWS V14.01,2013-01-22 18:54:00,
2013-01-22 13:59:00,20.2,-5.6,30.41,SW,215,6.0,0.0,31,0.00,,,0.00,VWS V14.01,2013-01-22 18:59:00,
2013-01-22 14:04:00,20.3,-5.5,30.42,NW,306,3.0,0.0,31,0.00,,,0.00,VWS V14.01,2013-01-22 19:04:00,
2013-01-22 14:09:00,20.2,-5.6,30.42,West,268,7.0,0.0,31,0.00,,,0.00,VWS V14.01,2013-01-22 19:09:00,
2013-01-22 14:14:00,19.2,-5.8,30.42,WNW,284,5.0,0.0,32,0.00,,,0.00,VWS V14.01,2013-01-22 19:14:00,
2013-01-22 14:19:00,19.9,-5.8,30.40,WSW,257,2.0,0.0,31,0.00,,,0.00,VWS V14.01,2013-01-22 19:19:00,
2013-01-22 14:24:00,20.0,-7.1,30.40,NW,320,3.0,0.0,29,0.00,,,0.00,VWS V14.01,2013-01-22 19:24:00,
2013-01-22 14:29:00,20.0,-6.4,30.40,West,273,7.0,0.0,30,0.00,,,0.00,VWS V14.01,2013-01-22 19:29:00,
2013-01-22 14:34:00,19.9,-7.2,30.40,WSW,254,3.0,0.0,29,0.00,,,0.00,VWS V14.01,2013-01-22 19:34:00,
2013-01-22 14:39:00,19.9,-6.5,30.40,West,265,4.0,0.0,30,0.00,,,0.00,VWS V14.01,2013-01-22 19:39:00,
2013-01-22 14:44:00,19.5,-7.6,30.40,WSW,244,5.0,0.0,29,0.00,,,0.00,VWS V14.01,2013-01-22 19:44:00,
2013-01-22 14:49:00,20.2,-6.3,30.40,West,259,5.0,0.0,30,0.00,,,0.00,VWS V14.01,2013-01-22 19:49:00,
2013-01-22 14:54:00,20.2,-7.0,30.40,West,278,14.0,0.0,29,0.00,,,0.00,VWS V14.01,2013-01-22 19:54:00,
2013-01-22 14:59:00,19.2,-7.8,30.40,WNW,294,8.0,0.0,29,0.00,,,0.00,VWS V14.01,2013-01-22 19:59:00,
2013-01-22 15:05:00,19.5,-6.2,30.41,West,264,10.0,0.0,31,0.00,,,0.00,VWS V14.01,2013-01-22 20:05:00,
2013-01-22 15:10:00,19.9,-6.5,30.41,West,263,7.0,0.0,30,0.00,,,0.00,VWS V14.01,2013-01-22 20:10:00,
2013-01-22 15:15:00,20.3,-6.9,30.41,SSW,194,5.0,0.0,29,0.00,,,0.00,VWS V14.01,2013-01-22 20:15:00,
2013-01-22 15:20:00,20.6,-7.3,30.41,SW,235,6.0,0.0,28,0.00,,,0.00,VWS V14.01,2013-01-22 20:20:00,
2013-01-22 15:25:00,20.6,-5.9,30.41,West,280,6.0,0.0,30,0.00,,,0.00,VWS V14.01,2013-01-22 20:25:00,
2013-01-22 15:30:00,19.9,-7.2,30.41,WNW,300,7.0,0.0,29,0.00,,,0.00,VWS V14.01,2013-01-22 20:30:00,
2013-01-22 15:35:00,19.5,-6.9,30.42,West,259,4.0,0.0,30,0.00,,,0.00,VWS V14.01,2013-01-22 20:35:00,
2013-01-22 15:40:00,19.9,-6.5,30.42,West,281,3.0,0.0,30,0.00,,,0.00,VWS V14.01,2013-01-22 20:40:00,
2013-01-22 15:45:00,20.2,-5.6,30.42,West,264,7.0,0.0,31,0.00,,,0.00,VWS V14.01,2013-01-22 20:45:00,
2013-01-22 15:50:00,20.2,-5.6,30.42,SW,230,2.0,0.0,31,0.00,,,0.00,VWS V14.01,2013-01-22 20:50:00,
2013-01-22 15:55:00,20.3,-5.5,30.42,WSW,257,3.0,0.0,31,0.00,,,0.00,VWS V14.01,2013-01-22 20:55:00,
2013-01-22 16:00:00,20.3,-6.2,30.42,West,265,7.0,0.0,30,0.00,,,0.00,VWS V14.01,2013-01-22 21:00:00,
2013-01-22 16:05:00,20.0,-5.8,30.42,West,269,5.0,0.0,31,0.00,,,0.00,VWS V14.01,2013-01-22 21:05:00,
2013-01-22 16:10:00,19.9,-5.8,30.42,WSW,256,3.0,0.0,31,0.00,,,0.00,VWS V14.01,2013-01-22 21:10:00,
2013-01-22 16:15:00,20.0,-5.8,30.42,WNW,296,4.0,0.0,31,0.00,,,0.00,VWS V14.01,2013-01-22 21:15:00,
2013-01-22 16:20:00,20.2,-4.9,30.42,WSW,254,2.0,0.0,32,0.00,,,0.00,VWS V14.01,2013-01-22 21:20:00,
2013-01-22 16:25:00,20.5,-4.7,30.42,SW,227,2.0,0.0,32,0.00,,,0.00,VWS V14.01,2013-01-22 21:25:00,
2013-01-22 16:30:00,20.5,-6.0,30.42,SW,231,5.0,0.0,30,0.00,,,0.00,VWS V14.01,2013-01-22 21:30:00,
2013-01-22 16:35:00,20.5,-5.3,30.41,West,267,3.0,0.0,31,0.00,,,0.00,VWS V14.01,2013-01-22 21:35:00,
2013-01-22 16:44:00,19.9,-5.8,30.41,WSW,254,3.0,0.0,31,0.00,,,0.00,VWS V14.01,2013-01-22 21:44:00,
2013-01-22 16:50:00,19.9,-5.8,30.42,West,275,2.0,0.0,31,0.00,,,0.00,VWS V14.01,2013-01-22 21:50:00,
2013-01-22 16:55:00,19.7,-6.0,30.42,NW,309,8.0,0.0,31,0.00,,,0.00,VWS V14.01,2013-01-22 21:55:00,
2013-01-22 17:00:00,19.9,-5.2,30.42,SW,228,3.0,0.0,32,0.00,,,0.00,VWS V14.01,2013-01-22 22:00:00,
2013-01-22 17:05:00,19.9,-4.6,30.42,SW,228,3.0,0.0,33,0.00,,,0.00,VWS V14.01,2013-01-22 22:05:00,
2013-01-22 17:06:00,18.8,-3.2,30.41,West,262,4.0,0.0,37,0.00,,,0.00,VWS V14.01,2013-01-22 22:06:00,
2013-01-22 17:11:00,18.6,-3.9,30.41,West,273,0.0,0.0,36,0.00,,,0.00,VWS V14.01,2013-01-22 22:11:00,
2013-01-22 17:15:00,19.5,-5.6,30.42,West,269,2.0,0.0,32,0.00,,,0.00,VWS V14.01,2013-01-22 22:15:00,
2013-01-22 17:20:00,19.5,-3.7,30.42,WSW,249,3.0,0.0,35,0.00,,,0.00,VWS V14.01,2013-01-22 22:20:00,
2013-01-22 17:25:00,19.4,-5.6,30.42,WNW,290,3.0,0.0,32,0.00,,,0.00,VWS V14.01,2013-01-22 22:25:00,
2013-01-22 17:30:00,19.2,-5.2,30.42,West,259,3.0,0.0,33,0.00,,,0.00,VWS V14.01,2013-01-22 22:30:00,
2013-01-22 17:35:00,19.1,-5.3,30.42,WNW,282,4.0,0.0,33,0.00,,,0.00,VWS V14.01,2013-01-22 22:35:00,
2013-01-22 17:40:00,18.9,-4.8,30.42,West,273,3.0,0.0,34,0.00,,,0.00,VWS V14.01,2013-01-22 22:40:00,
2013-01-22 17:45:00,18.9,-4.8,30.42,West,279,4.0,0.0,34,0.00,,,0.00,VWS V14.01,2013-01-22 22:45:00,
2013-01-22 17:50:00,18.9,-3.6,30.42,West,269,2.0,0.0,36,0.00,,,0.00,VWS V14.01,2013-01-22 22:50:00,
2013-01-22 17:55:00,18.8,-4.9,30.42,West,263,6.0,0.0,34,0.00,,,0.00,VWS V14.01,2013-01-22 22:55:00,
2013-01-22 18:00:00,18.6,-4.5,30.42,West,267,1.0,0.0,35,0.00,,,0.00,VWS V14.01,2013-01-22 23:00:00,
2013-01-22 18:05:00,18.6,-3.9,30.41,West,266,2.0,0.0,36,0.00,,,0.00,VWS V14.01,2013-01-22 23:05:00,
2013-01-22 18:06:00,17.7,-2.5,30.43,WNW,285,2.0,0.0,40,0.00,,,0.00,VWS V14.01,2013-01-22 23:06:00,
2013-01-22 18:10:00,17.7,-2.0,30.43,WNW,285,0.0,0.0,41,0.00,,,0.00,VWS V14.01,2013-01-22 23:10:00,
2013-01-22 18:14:00,18.6,-3.9,30.41,West,273,0.0,0.0,36,0.00,,,0.00,VWS V14.01,2013-01-22 23:14:00,
2013-01-22 18:20:00,18.4,-4.7,30.42,WNW,284,3.0,0.0,35,0.00,,,0.00,VWS V14.01,2013-01-22 23:20:00,
2013-01-22 18:25:00,18.3,-3.0,30.42,WNW,283,0.0,0.0,38,0.00,,,0.00,VWS V14.01,2013-01-22 23:25:00,
2013-01-22 18:30:00,18.1,-3.2,30.42,WNW,283,1.0,0.0,38,0.00,,,0.00,VWS V14.01,2013-01-22 23:30:00,
2013-01-22 18:35:00,18.1,-3.8,30.41,WNW,283,0.0,0.0,37,0.00,,,0.00,VWS V14.01,2013-01-22 23:35:00,
2013-01-22 18:40:00,18.0,-1.2,30.43,West,267,0.0,0.0,42,0.00,,,0.00,VWS V14.01,2013-01-22 23:40:00,
2013-01-22 18:41:00,18.3,-2.5,30.41,West,281,0.0,0.0,39,0.00,,,0.00,VWS V14.01,2013-01-22 23:41:00,
2013-01-22 18:46:00,18.1,-3.2,30.41,West,271,1.0,0.0,38,0.00,,,0.00,VWS V14.01,2013-01-22 23:46:00,
2013-01-22 18:51:00,18.0,-2.8,30.42,West,271,2.0,0.0,39,0.00,,,0.00,VWS V14.01,2013-01-22 23:51:00,
2013-01-22 18:56:00,18.0,-2.2,30.42,West,270,2.0,0.0,40,0.00,,,0.00,VWS V14.01,2013-01-22 23:56:00,
2013-01-22 19:01:00,18.0,-1.7,30.42,West,271,0.0,0.0,41,0.00,,,0.00,VWS V14.01,2013-01-23 00:01:00,
2013-01-22 19:06:00,17.8,-2.4,30.43,West,274,2.0,0.0,40,0.00,,,0.00,VWS V14.01,2013-01-23 00:06:00,
2013-01-22 19:16:00,17.7,-2.0,30.43,WNW,284,1.0,0.0,41,0.00,,,0.00,VWS V14.01,2013-01-23 00:16:00,
2013-01-22 19:17:00,18.0,0.2,30.42,West,267,0.0,0.0,45,0.00,,,0.00,VWS V14.01,2013-01-23 00:17:00,
2013-01-22 19:21:00,17.7,-1.5,30.43,West,261,0.0,0.0,42,0.00,,,0.00,VWS V14.01,2013-01-23 00:21:00,
2013-01-22 19:22:00,18.0,-0.7,30.42,West,267,0.0,0.0,43,0.00,,,0.00,VWS V14.01,2013-01-23 00:22:00,
2013-01-22 19:26:00,17.7,-2.5,30.43,West,268,0.0,0.0,40,0.00,,,0.00,VWS V14.01,2013-01-23 00:26:00,
2013-01-22 19:30:00,17.7,-2.0,30.42,West,261,0.0,0.0,41,0.00,,,0.00,VWS V14.01,2013-01-23 00:30:00,
2013-01-22 19:31:00,17.7,-2.0,30.43,West,267,0.0,0.0,41,0.00,,,0.00,VWS V14.01,2013-01-23 00:31:00,
2013-01-22 19:36:00,17.8,-0.9,30.43,West,268,0.0,0.0,43,0.00,,,0.00,VWS V14.01,2013-01-23 00:36:00,
2013-01-22 19:41:00,18.0,-0.7,30.43,West,267,0.0,0.0,43,0.00,,,0.00,VWS V14.01,2013-01-23 00:41:00,
2013-01-22 19:46:00,18.0,-0.7,30.43,West,267,0.0,0.0,43,0.00,,,0.00,VWS V14.01,2013-01-23 00:46:00,
2013-01-22 19:51:00,17.8,-0.9,30.42,West,267,0.0,0.0,43,0.00,,,0.00,VWS V14.01,2013-01-23 00:51:00,
2013-01-22 20:00:00,17.3,-0.4,30.42,West,263,0.0,0.0,45,0.00,,,0.00,VWS V14.01,2013-01-23 01:00:00,
2013-01-22 20:01:00,17.7,0.9,30.42,West,267,0.0,0.0,47,0.00,,,0.00,VWS V14.01,2013-01-23 01:01:00,
2013-01-22 20:06:00,18.0,2.1,30.42,West,267,1.0,0.0,49,0.00,,,0.00,VWS V14.01,2013-01-23 01:06:00,
2013-01-22 20:12:00,18.1,-0.6,30.42,West,267,0.0,0.0,43,0.00,,,0.00,VWS V14.01,2013-01-23 01:12:00,
2013-01-22 20:17:00,18.0,-0.7,30.42,West,267,0.0,0.0,43,0.00,,,0.00,VWS V14.01,2013-01-23 01:17:00,
2013-01-22 20:22:00,17.5,0.3,30.42,West,263,0.0,0.0,46,0.00,,,0.00,VWS V14.01,2013-01-23 01:22:00,
2013-01-22 20:24:00,18.0,-0.7,30.42,West,267,0.0,0.0,43,0.00,,,0.00,VWS V14.01,2013-01-23 01:24:00,
2013-01-22 20:32:00,17.8,-1.4,30.42,West,267,0.0,0.0,42,0.00,,,0.00,VWS V14.01,2013-01-23 01:32:00,
2013-01-22 20:37:00,17.5,-1.7,30.42,West,261,0.0,0.0,42,0.00,,,0.00,VWS V14.01,2013-01-23 01:37:00,
2013-01-22 20:42:00,17.3,-1.9,30.42,West,261,0.0,0.0,42,0.00,,,0.00,VWS V14.01,2013-01-23 01:42:00,
2013-01-22 20:43:00,17.0,-0.7,30.42,West,265,0.0,0.0,45,0.00,,,0.00,VWS V14.01,2013-01-23 01:43:00,
2013-01-22 20:47:00,17.3,-1.4,30.42,West,261,0.0,0.0,43,0.00,,,0.00,VWS V14.01,2013-01-23 01:47:00,
2013-01-22 20:52:00,17.3,-1.9,30.42,West,261,0.0,0.0,42,0.00,,,0.00,VWS V14.01,2013-01-23 01:52:00,
2013-01-22 20:57:00,17.2,-2.4,30.42,West,262,0.0,0.0,41,0.00,,,0.00,VWS V14.01,2013-01-23 01:57:00,
2013-01-22 21:02:00,17.3,-1.4,30.42,West,262,1.0,0.0,43,0.00,,,0.00,VWS V14.01,2013-01-23 02:02:00,
2013-01-22 21:07:00,17.5,-0.2,30.42,West,263,2.0,0.0,45,0.00,,,0.00,VWS V14.01,2013-01-23 02:07:00,
2013-01-22 21:12:00,17.5,-0.2,30.42,West,263,0.0,0.0,45,0.00,,,0.00,VWS V14.01,2013-01-23 02:12:00,
2013-01-22 21:17:00,17.7,0.0,30.42,West,263,0.0,0.0,45,0.00,,,0.00,VWS V14.01,2013-01-23 02:17:00,
2013-01-22 21:22:00,17.5,-0.7,30.42,West,263,0.0,0.0,44,0.00,,,0.00,VWS V14.01,2013-01-23 02:22:00,
2013-01-22 21:32:00,17.3,-1.4,30.42,West,264,0.0,0.0,43,0.00,,,0.00,VWS V14.01,2013-01-23 02:32:00,
2013-01-22 21:37:00,17.2,-1.4,30.42,West,264,0.0,0.0,43,0.00,,,0.00,VWS V14.01,2013-01-23 02:37:00,
2013-01-22 21:42:00,16.9,-1.2,30.42,West,264,0.0,0.0,44,0.00,,,0.00,VWS V14.01,2013-01-23 02:42:00,
2013-01-22 21:52:00,17.2,-1.0,30.42,West,264,0.0,0.0,44,0.00,,,0.00,VWS V14.01,2013-01-23 02:52:00,
2013-01-22 21:57:00,17.0,-1.1,30.42,West,269,0.0,0.0,44,0.00,,,0.00,VWS V14.01,2013-01-23 02:57:00,
2013-01-22 22:03:00,16.7,-2.4,30.42,WNW,286,1.0,0.0,42,0.00,,,0.00,VWS V14.01,2013-01-23 03:03:00,
2013-01-22 22:08:00,16.9,-1.2,30.42,West,268,0.0,0.0,44,0.00,,,0.00,VWS V14.01,2013-01-23 03:08:00,
2013-01-22 22:13:00,16.9,-1.2,30.42,West,269,1.0,0.0,44,0.00,,,0.00,VWS V14.01,2013-01-23 03:13:00,
2013-01-22 22:18:00,16.9,-1.2,30.42,West,269,1.0,0.0,44,0.00,,,0.00,VWS V14.01,2013-01-23 03:18:00,
2013-01-22 22:23:00,16.7,-1.9,30.42,WNW,285,1.0,0.0,43,0.00,,,0.00,VWS V14.01,2013-01-23 03:23:00,
2013-01-22 22:28:00,16.5,-1.6,30.42,West,278,3.0,0.0,44,0.00,,,0.00,VWS V14.01,2013-01-23 03:28:00,
2013-01-22 22:33:00,16.5,-1.6,30.42,West,275,2.0,0.0,44,0.00,,,0.00,VWS V14.01,2013-01-23 03:33:00,
2013-01-22 22:38:00,16.9,-0.8,30.42,West,269,1.0,0.0,45,0.00,,,0.00,VWS V14.01,2013-01-23 03:38:00,
2013-01-22 22:43:00,16.9,-1.2,30.42,West,266,5.0,0.0,44,0.00,,,0.00,VWS V14.01,2013-01-23 03:43:00,
2013-01-22 22:48:00,16.7,-1.4,30.42,NW,310,4.0,0.0,44,0.00,,,0.00,VWS V14.01,2013-01-23 03:48:00,
2013-01-22 22:53:00,16.5,-1.6,30.42,West,281,3.0,0.0,44,0.00,,,0.00,VWS V14.01,2013-01-23 03:53:00,
2013-01-22 22:58:00,16.5,-1.6,30.42,West,280,2.0,0.0,44,0.00,,,0.00,VWS V14.01,2013-01-23 03:58:00,
2013-01-22 23:00:00,16.4,-0.3,30.44,WNW,293,2.0,0.0,47,0.00,,,0.00,VWS V14.01,2013-01-23 04:00:00,
2013-01-22 23:03:00,16.5,-0.2,30.42,West,279,0.0,0.0,47,0.00,,,0.00,VWS V14.01,2013-01-23 04:03:00,
2013-01-22 23:08:00,16.7,-0.9,30.43,West,279,3.0,0.0,45,0.00,,,0.00,VWS V14.01,2013-01-23 04:08:00,
2013-01-22 23:10:00,16.7,0.4,30.44,WNW,283,1.0,0.0,48,0.00,,,0.00,VWS V14.01,2013-01-23 04:10:00,
2013-01-22 23:13:00,16.5,-0.7,30.43,West,279,3.0,0.0,46,0.00,,,0.00,VWS V14.01,2013-01-23 04:13:00,
2013-01-22 23:18:00,16.7,0.0,30.43,WNW,286,1.0,0.0,47,0.00,,,0.00,VWS V14.01,2013-01-23 04:18:00,
2013-01-22 23:20:00,16.7,0.0,30.44,West,260,2.0,0.0,47,0.00,,,0.00,VWS V14.01,2013-01-23 04:20:00,
2013-01-22 23:23:00,16.7,-0.5,30.44,West,263,4.0,0.0,46,0.00,,,0.00,VWS V14.01,2013-01-23 04:23:00,
2013-01-22 23:28:00,16.7,-0.9,30.44,West,271,2.0,0.0,45,0.00,,,0.00,VWS V14.01,2013-01-23 04:28:00,
2013-01-22 23:30:00,16.5,-0.7,30.44,West,271,3.0,0.0,46,0.00,,,0.00,VWS V14.01,2013-01-23 04:30:00,
2013-01-22 23:33:00,16.7,-0.9,30.44,West,281,3.0,0.0,45,0.00,,,0.00,VWS V14.01,2013-01-23 04:33:00,
2013-01-22 23:38:00,16.7,-0.9,30.44,West,277,2.0,0.0,45,0.00,,,0.00,VWS V14.01,2013-01-23 04:38:00,
2013-01-22 23:40:00,16.1,-1.0,30.44,WNW,283,2.0,0.0,46,0.00,,,0.00,VWS V14.01,2013-01-23 04:40:00,
2013-01-22 23:43:00,16.5,0.2,30.44,WNW,285,0.0,0.0,48,0.00,,,0.00,VWS V14.01,2013-01-23 04:43:00,
2013-01-22 23:48:00,16.7,0.0,30.44,WNW,282,0.0,0.0,47,0.00,,,0.00,VWS V14.01,2013-01-23 04:48:00,
2013-01-22 23:50:00,16.2,0.0,30.44,WNW,283,0.0,0.0,48,0.00,,,0.00,VWS V14.01,2013-01-23 04:50:00,
2013-01-22 23:53:00,16.5,-0.2,30.44,WNW,288,0.0,0.0,47,0.00,,,0.00,VWS V14.01,2013-01-23 04:53:00,
2013-01-22 23:58:00,16.5,-0.7,30.44,WNW,293,4.0,0.0,46,0.00,,,0.00,VWS V14.01,2013-01-23 04:58:00,